Regional Weather Roundup
Issued by NWS

Home | Current Version | Previous Version | Text Only | Print | Product List | Glossary Off
Versions: 1 2 3 4 5 6 7 8 9 10 11 12 13 14 15 16 17 18 19 20 21 22 23 24 25 26 27 28 29 30 31 32 33 34 35 36 37 38 39 40 41 42 43 44 45 46 47 48 49 50

000
ASUS43 KMPX 021101
RWRMN
WEATHER ROUNDUP FOR MINNESOTA
NATIONAL WEATHER SERVICE TWIN CITIES/CHANHASSEN MN
600 AM CDT TUE SEP 02 2014


NOTE: "FAIR" INDICATES FEW OR NO CLOUDS BELOW 12,000 FEET WITH NO
SIGNIFICANT WEATHER AND/OR OBSTRUCTIONS TO VISIBILITY. N/A MEANS
CURRENT SKY AND/OR WEATHER CONDITIONS ARE NOT AVAILABLE.

MNZ060>063-068>070-021200-
   Twin Cities Metro

CITY           SKY/WX    TMP DP  RH WIND       PRES   REMARKS
TWIN CITIES    CLOUDY    63  59  87 SW5       29.85R
ST PAUL        CLOUDY    63  59  87 CALM      29.85R
CRYSTAL        CLOUDY    63  57  81 W3        29.83R
BLAINE         CLOUDY    63  61  94 CALM      29.85R
LAKEVILLE      CLOUDY    61  57  88 SW5       29.86R
EDEN PRAIRIE   CLOUDY    60  58  92 SW5       29.84R
SOUTH ST PAUL  CLOUDY    63  58  85 CALM      29.85R
LAKE ELMO      MOCLDY    61  59  94 CALM      29.86R
$$
MNZ001>005-007-008-013>017-022>024-027-028-021200-
   Northwest Minnesota

CITY           SKY/WX    TMP DP  RH WIND       PRES   REMARKS
BEMIDJI        PTCLDY    53  50  91 SW6       29.80S
HALLOCK        CLEAR     45  43  93 S3        29.74S
ROSEAU           N/A     48  43  81 S5        29.74S
WARROAD        CLEAR     48  45  87 SW6       29.75R
THIEF RVR FALL CLEAR     50  46  87 SW6       29.78R
CROOKSTON      CLEAR     48  46  93 S6        29.78S
FOSSTON        CLEAR     46  46 100 S6        29.81R
DETROIT LAKES  CLEAR     54  52  94 CALM      29.83F
MOORHEAD       CLEAR     52  52 100 S3        29.82S
PARK RAPIDS    CLEAR     50  48  93 CALM      29.82S
MAHNOMEN       FAIR      48  48  99 S7        29.81S
$$
MNZ006-009>011-018-025>026-021200-
   North Central Minnesota

CITY           SKY/WX    TMP DP  RH WIND       PRES   REMARKS
BAUDETTE       CLEAR     48  46  93 SW5       29.74S
FLAG ISLAND    PTCLDY    55  50  82 W12       29.71S
INTL FALLS     CLEAR     47  46  97 SW3       29.75R
WASKISH        MOCLDY    57  54  88 S3        29.77S
BIG FORK       FOG       46  45  93 CALM      29.80R VSB 1
LONGVILLE      CLEAR     52  50  93 CALM      29.81S
GRAND RAPIDS   CLEAR     54  48  82 CALM      29.81S
CRANE LAKE     CLEAR     43  43 100 CALM      29.78S
ORR            CLEAR     50  46  87 CALM      29.76S
COOK           CLEAR     46  46 100 CALM      29.79S
WALKER         FAIR      54  49  86 W5        29.81S
$$
MNZ012-019>021-037-021200-
   Northeast Minnesota

CITY           SKY/WX    TMP DP  RH WIND       PRES   REMARKS
DULUTH         MOCLDY    54  50  86 NW5       29.81S
ELY            CLEAR     48  46  93 CALM      29.79S
HIBBING        FOG       43  41  93 CALM      29.81R VSB 1/2
EVELETH        FOG       45  45 100 CALM      29.82R VSB 1/4
DULUTH HARBOR  MOCLDY    55  54  94 SW10      29.81S
TWO HARBORS    MOCLDY    52  46  82 CALM      29.78S
SILVER BAY     MOCLDY    52  52 100 W3        29.77S
GRAND MARAIS     N/A     59  54  83 W6        29.75R
G MARAIS ARPRT PTCLDY    52  46  82 W7        29.78S
$$
MNZ029>031-032-039>041-046>048-054>057-064-021200-
   West Central Minnesota

CITY           SKY/WX    TMP DP  RH WIND       PRES   REMARKS
FERGUS FALLS   CLEAR     54  52  94 CALM      29.85R
WHEATON        CLEAR     52  50  93 SW3       29.87S
MORRIS         CLEAR     54  52  94 SW3       29.86S
ALEXANDRIA     CLEAR     54  51  90 SW5       29.87S
ELBOW LAKE     FAIR      52  51  99 S3        29.85S
WADENA         CLEAR     50  50 100 SW3       29.84S
GLENWOOD       CLEAR     55  54  94 W6        29.87S
APPLETON       CLEAR     55  52  88 SW3       29.87R
BENSON         CLEAR     52  52 100 CALM      29.87S
ORTONVILLE     CLEAR     55  52  88 SW5       29.86F
MADISON        CLEAR     55  54  94 SW3       29.88S
WILLMAR        FAIR      55  54  94 CALM      29.89S
$$
MNZ033>034-036-042>043-049>051-058-059-021200-
   Central Minnesota

CITY           SKY/WX    TMP DP  RH WIND       PRES   REMARKS
ST CLOUD       CLOUDY    58  54  86 NW3       29.85R
SAUK CENTRE    FAIR      54  52  94 NW3       29.86S
PAYNESVILLE    HVY RAIN  52  52 100 SW6       29.87S
AITKIN         HAZE      52  46  82 CALM      29.82S VSB 1/4
PINE RIVER     FOG       46  46 100 CALM      29.87S VSB 1/2
BRAINERD       PTCLDY    49  49 100 S5        29.84S
STAPLES        CLEAR     48  48 100 CALM      29.84S
LONG PRAIRIE   FAIR      52  50  93 CALM      29.86S FOG
LITTLE FALLS     N/A     50  48  93 CALM      29.84F FOG
LITCHFIELD     MOCLDY    59  57  94 W5        29.87R
BUFFALO        CLOUDY    60  56  86 W5        29.86R
MAPLE LAKE     CLOUDY    59  58  94 CALM      29.86R
$$
MNZ037-044-045-052-053-021200-
   East Central Minnesota

CITY           SKY/WX    TMP DP  RH WIND       PRES   REMARKS
PRINCETON      CLOUDY    55  54  94 CALM      29.85R
MORA           MOCLDY    54  52  94 CALM      29.85S
CAMBRIDGE      CLOUDY    57  50  77 CALM      29.83R
RUSH CITY      CLOUDY    53  52  95 CALM      29.85R
MOOSE LAKE     FOG       50  48  93 CALM      29.81S VSB 3/4
HINCKLEY       FAIR      50  50 100 CALM      29.84R
CLOQUET        MOCLDY    52  48  87 CALM      29.82S
MCGREGOR       PTCLDY    52  50  93 CALM      29.84S
$$
MNZ071>073-080-081-089-090-097-098-021200-
   Southwest Minnesota

CITY           SKY/WX    TMP DP  RH WIND       PRES   REMARKS
MONTEVIDEO     CLEAR     55  54  94 W6        29.89S
GRANITE FALLS  CLEAR     54  54  98 SW6       29.90S
CANBY          CLEAR     57  54  89 W7        29.90S
MARSHALL       PTCLDY    57  52  82 W9        29.89R
REDWOOD FALLS  PTCLDY    60  55  83 W10       29.88R
OLIVIA         PTCLDY    57  54  88 W3        29.87S
PIPESTONE      CLEAR     54  52  94 CALM      29.92S
WINDOM         PTCLDY    57  54  88 W6        29.91S
WORTHINGTON    CLEAR     57  54  88 W6        29.93S
JACKSON        MOCLDY    57  54  88 SW5       29.91S
TRACY          CLEAR     59  55  87 SW7       29.91R
SLAYTON        CLEAR     57  54  89 CALM      29.93R
$$
MNZ065>067-074>077-082>085-091>093-021200-
   South Central Minnesota

CITY           SKY/WX    TMP DP  RH WIND       PRES   REMARKS
MANKATO        CLOUDY    59  54  82 SW7       29.89F
NEW ULM        LGT RAIN  59  59 100 SW6       29.89S
ST JAMES       CLOUDY    57  55  94 NW5       29.90F
FAIRMONT       CLOUDY    57  52  82 S8        29.90S
GLENCOE        CLOUDY    60  55  83 SW3       29.86R
FARIBAULT      DRIZZLE   64  55  72 SW6       29.90R
OWATONNA       LGT RAIN  61  57  88 CALM      29.90S
WASECA         DRIZZLE   59  52  77 W14       29.93R
ALBERT LEA     LGT RAIN  61  57  88 SW6       29.91S
$$
MNZ078>079-086>088-094>096-021200-
   Southeast Minnesota

CITY           SKY/WX    TMP DP  RH WIND       PRES   REMARKS
ROCHESTER      CLOUDY    60  56  86 W12       29.90R
RED WING       DRIZZLE   61  57  88 N3        29.85R
STANTON        CLOUDY    62  58  86 S6        29.86R
DODGE CENTER   LGT RAIN  61  57  88 NW6       29.89R
WINONA         MOCLDY    59  57  94 CALM      29.86R
AUSTIN         CLOUDY    61  57  88 W12       29.90R
PRESTON        CLOUDY    59  58  97 CALM      29.89R
$$
ABBREVIATIONS USED IN REMARKS
   TC - TEMPERATURES IN CELSIUS
  WCI - WIND CHILL INDEX
   HX - HEAT INDEX
  VSB - VISIBILITY
$$


USA.gov is the U.S. government's official web portal to all federal, state and local government web resources and services.